Holloman AFB, NM

10:39 PM MST on February 24, 2017 (GMT -0700)
Holloman Air Force Base

Weather History for KHMN - May, 2013

Change the Weather History Date:

Wednesday, May 22, 2013

  Actual Average Record
Temperature  
Mean Temperature 78 °F -  
Max Temperature 93 °F 86 °F 97 °F (2012)
Min Temperature 62 °F 56 °F 48 °F (2001)
Cooling Degree Days 12    
Growing Degree Days 28 (Base 50)    
Moisture  
Dew Point 13 °F    
Average Humidity 8    
Maximum Humidity 15    
Minimum Humidity 5    
Precipitation  
Precipitation 0.00 in - - ()
Sea Level Pressure  
Sea Level Pressure 29.71 in    
Wind  
Wind Speed 10 mph (South)    
Max Wind Speed 21 mph    
Max Gust Speed 26 mph    
Visibility 10 miles    
Events      
Averages and records for this station are not official NWS values.
T = Trace of Precipitation, MM = Missing Value Source: NWS Daily Summary

Daily Weather History Graph

Daily Weather History Graph

Search for Another Location

Airport or City:

Trip Planner

Search our weather history database for the weather conditions in past years. The results will help you decide how hot, cold, wet, or windy it might be!

Date:

Astronomy

May. 22, 2013 Rise Set
Actual Time 6:00 AM MDT 8:01 PM MDT
Civil Twilight 5:33 AM MDT 8:29 PM MDT
Nautical Twilight 4:59 AM MDT 9:03 PM MDT
Astronomical Twilight 4:23 AM MDT 9:39 PM MDT
Moon 5:33 PM MDT (5/22) 3:58 AM MDT (5/22)
Length of Visible Light 14h 56m
Length of Day
14h 00m
Waxing Gibbous, 92% of the Moon is Illuminated
May 22
Waxing Gibbous
May 24
Full
May 31
Last Quarter
Jun 8
New
Jun 16
First Quarter

Hourly Weather History & Observations

Time (MDT) Temp. Dew Point Humidity Pressure Visibility Wind Dir Wind Speed Gust Speed Precip Events Conditions
12:58 AM 65.5 °F 15.4 °F 14% 29.70 in 10.0 mi SSE 8.1 mph - N/A   Clear
1:58 AM 63.7 °F 14.0 °F 15% 29.69 in 10.0 mi SSE 6.9 mph - N/A   Clear
2:58 AM 62.2 °F 14.2 °F 15% 29.70 in 10.0 mi SSE 8.1 mph - N/A   Clear
3:58 AM 62.4 °F 14.4 °F 15% 29.70 in 10.0 mi SSE 10.4 mph - N/A   Clear
4:58 AM 64.8 °F 13.1 °F 13% 29.70 in 10.0 mi SE 9.2 mph - N/A   Clear
5:58 AM 63.3 °F 13.6 °F 14% 29.71 in 10.0 mi SSE 10.4 mph - N/A   Clear
6:58 AM 63.0 °F 14.9 °F 15% 29.74 in 10.0 mi SSE 6.9 mph - N/A   Clear
7:58 AM 70.7 °F 14.0 °F 11% 29.74 in 10.0 mi South 9.2 mph - N/A   Clear
8:58 AM 76.1 °F 13.6 °F 9% 29.75 in 10.0 mi South 11.5 mph - N/A   Clear
9:58 AM 79.3 °F 13.5 °F 8% 29.75 in 10.0 mi SSW 10.4 mph - N/A   Clear
10:58 AM 83.3 °F 13.6 °F 7% 29.74 in 10.0 mi SW 8.1 mph - N/A   Clear
11:58 AM 86.9 °F 12.7 °F 6% 29.73 in 10.0 mi WSW 10.4 mph 19.6 mph N/A   Clear
12:04 PM 87.8 °F 14.0 °F 6% 29.93 in 10.0 mi West 16.1 mph 23.0 mph N/A   Clear
12:58 PM 89.2 °F 10.2 °F 5% 29.70 in 10.0 mi Variable 5.8 mph 26.5 mph N/A   Clear
1:15 PM 89.6 °F 10.4 °F 5% 29.90 in 10.0 mi West 13.8 mph 18.4 mph N/A   Partly Cloudy
1:58 PM 90.0 °F 10.9 °F 5% 29.67 in 10.0 mi SSW 9.2 mph 23.0 mph N/A   Partly Cloudy
2:58 PM 92.5 °F 12.6 °F 5% 29.65 in 10.0 mi WSW 15.0 mph 19.6 mph N/A   Clear
3:58 PM 92.3 °F 12.6 °F 5% 29.62 in 10.0 mi SSW 11.5 mph 20.7 mph N/A   Clear
4:00 PM 93.2 °F 12.2 °F 5% 29.83 in 10.0 mi WSW 12.7 mph 20.7 mph N/A   Clear
4:21 PM 93.2 °F 12.2 °F 5% 29.81 in 10.0 mi South 17.3 mph 26.5 mph N/A   Clear
4:58 PM 92.3 °F 12.4 °F 5% 29.60 in 10.0 mi SW 20.7 mph 26.5 mph N/A   Clear
5:58 PM 92.5 °F 12.7 °F 5% 29.60 in 10.0 mi SSW 17.3 mph 20.7 mph N/A   Clear
6:58 PM 90.1 °F 10.9 °F 5% 29.59 in 10.0 mi South 18.4 mph 24.2 mph N/A   Clear
7:58 PM 86.4 °F 12.4 °F 6% 29.61 in 10.0 mi South 12.7 mph - N/A   Clear
8:58 PM 80.1 °F 11.1 °F 7% 29.63 in 10.0 mi South 10.4 mph - N/A   Clear
9:58 PM 75.7 °F 10.8 °F 8% 29.65 in 10.0 mi SSE 8.1 mph - N/A   Clear
10:58 PM 74.7 °F 12.6 °F 9% 29.65 in 10.0 mi SE 11.5 mph - N/A   Clear
11:58 PM 70.2 °F 11.5 °F 10% 29.66 in 10.0 mi SE 8.1 mph - N/A   Clear